• în Republica Moldova
  • Lista ţărilor
  • Pe 7 zile
  • Temperatura apei
  • Hartă satelitară
  • Meteo pe hartă
  • Widget-uri
  • user-avatar
    Intrare

    Meteo pe oră la Wien

    Astăzi, 18 Noiembrie, Sâmbătă

    Timp Temperatura Precipitaţii Vânt Presiune Umiditate
    00:00 +2°C° 0 mm 3 m/s 748 mmHg 84%
    01:00 +3°C° 0 mm 2 m/s 748 mmHg 87%
    02:00 +2°C° 0 mm 3 m/s 748 mmHg 86%
    03:00 +2°C° 0 mm 3 m/s 747 mmHg 86%
    04:00 +2°C° 0 mm 3 m/s 747 mmHg 86%
    05:00 +1°C° 0 mm 3 m/s 747 mmHg 87%
    06:00 +1°C° 0 mm 3 m/s 747 mmHg 88%
    07:00 +1°C° 0 mm 3 m/s 747 mmHg 89%
    08:00 +2°C° 0 mm 3 m/s 747 mmHg 84%
    09:00 +3°C° 0 mm 3 m/s 746 mmHg 78%
    10:00 +4°C° 0 mm 3 m/s 746 mmHg 72%
    11:00 +5°C° 0 mm 3 m/s 746 mmHg 69%
    12:00 +7°C° 0 mm 3 m/s 745 mmHg 66%
    13:00 +7°C° 0 mm 3 m/s 745 mmHg 62%
    14:00 +7°C° 0 mm 3 m/s 744 mmHg 65%
    15:00 +5°C° 0 mm 3 m/s 744 mmHg 69%
    16:00 +4°C° 0 mm 3 m/s 744 mmHg 72%
    17:00 +4°C° 0 mm 3 m/s 744 mmHg 74%
    18:00 +3°C° 0 mm 3 m/s 744 mmHg 76%
    19:00 +3°C° 0 mm 3 m/s 744 mmHg 78%
    20:00 +3°C° 0 mm 3 m/s 744 mmHg 79%
    21:00 +2°C° 0 mm 3 m/s 743 mmHg 80%
    22:00 +2°C° 0 mm 3 m/s 743 mmHg 80%
    23:00 +1°C° 0 mm 4 m/s 743 mmHg 78%

    Mâine, 19 Noiembrie, Duminică

    Timp Temperatura Precipitaţii Vânt Presiune Umiditate
    00:00 +1°C° 0 mm 4 m/s 743 mmHg 77%
    01:00 +1°C° 0 mm 4 m/s 743 mmHg 75%
    02:00 +3°C° 0,1 mm 4 m/s 742 mmHg 74%
    03:00 +3°C° 0,1 mm 4 m/s 742 mmHg 73%
    04:00 +3°C° 0,1 mm 4 m/s 742 mmHg 72%
    05:00 +3°C° 0,1 mm 4 m/s 742 mmHg 73%
    06:00 +3°C° 0,1 mm 4 m/s 741 mmHg 74%
    07:00 +2°C° 0,1 mm 3 m/s 741 mmHg 75%
    08:00 +3°C° 0,1 mm 4 m/s 741 mmHg 73%
    09:00 +4°C° 0,1 mm 4 m/s 741 mmHg 70%
    10:00 +5°C° 0,1 mm 5 m/s 741 mmHg 67%
    11:00 +5°C° 0,2 mm 5 m/s 741 mmHg 67%
    12:00 +5°C° 0,2 mm 5 m/s 741 mmHg 66%
    13:00 +5°C° 0,2 mm 5 m/s 741 mmHg 66%
    14:00 +5°C° 0 mm 5 m/s 741 mmHg 66%
    15:00 +3°C° 0 mm 5 m/s 741 mmHg 67%
    16:00 +4°C° 0 mm 4 m/s 741 mmHg 67%
    17:00 +3°C° 0 mm 5 m/s 741 mmHg 69%
    18:00 +2°C° 0 mm 5 m/s 742 mmHg 70%
    19:00 +2°C° 0 mm 5 m/s 742 mmHg 72%
    20:00 +2°C° 0 mm 5 m/s 742 mmHg 72%
    21:00 +2°C° 0 mm 6 m/s 742 mmHg 73%
    22:00 +2°C° 0 mm 6 m/s 742 mmHg 73%
    23:00 +2°C° 0 mm 6 m/s 742 mmHg 73%

    Poimâine, 20 Noiembrie, Luni

    Timp Temperatura Precipitaţii Vânt Presiune Umiditate
    00:00 +2°C° 0 mm 6 m/s 743 mmHg 73%
    01:00 +2°C° 0 mm 6 m/s 743 mmHg 74%
    02:00 +2°C° 0,1 mm 6 m/s 743 mmHg 73%
    03:00 +2°C° 0,1 mm 6 m/s 743 mmHg 73%
    04:00 +2°C° 0,1 mm 6 m/s 743 mmHg 73%
    05:00 +2°C° 0,1 mm 6 m/s 743 mmHg 73%
    06:00 +2°C° 0,1 mm 6 m/s 743 mmHg 73%
    07:00 +2°C° 0,1 mm 6 m/s 744 mmHg 73%
    08:00 +3°C° 0,1 mm 7 m/s 744 mmHg 70%
    09:00 +3°C° 0,1 mm 7 m/s 745 mmHg 67%
    10:00 +4°C° 0,1 mm 8 m/s 745 mmHg 65%
    11:00 +4°C° 0 mm 8 m/s 745 mmHg 63%
    12:00 +5°C° 0 mm 7 m/s 745 mmHg 62%
    13:00 +5°C° 0 mm 7 m/s 745 mmHg 60%
    14:00 +4°C° 0 mm 6 m/s 744 mmHg 63%
    15:00 +4°C° 0 mm 6 m/s 744 mmHg 65%
    16:00 +3°C° 0 mm 5 m/s 744 mmHg 68%
    17:00 +4°C° 0,1 mm 4 m/s 744 mmHg 69%
    18:00 +4°C° 0,1 mm 4 m/s 744 mmHg 71%
    19:00 +3°C° 0,1 mm 4 m/s 744 mmHg 72%
    20:00 +3°C° 0,4 mm 3 m/s 744 mmHg 73%
    21:00 +3°C° 0,4 mm 3 m/s 743 mmHg 75%
    22:00 +4°C° 0,4 mm 3 m/s 743 mmHg 76%
    23:00 +4°C° 0,9 mm 3 m/s 743 mmHg 78%

    21 Noiembrie, Marţi

    Timp Temperatura Precipitaţii Vânt Presiune Umiditate
    00:00 +4°C° 0,9 mm 3 m/s 742 mmHg 79%
    01:00 +4°C° 0,9 mm 3 m/s 741 mmHg 81%
    02:00 +4°C° 0,1 mm 4 m/s 741 mmHg 80%
    03:00 +5°C° 0,1 mm 5 m/s 741 mmHg 78%
    04:00 +4°C° 0,1 mm 6 m/s 740 mmHg 77%
    05:00 +4°C° 0 mm 6 m/s 740 mmHg 77%
    06:00 +5°C° 0 mm 7 m/s 740 mmHg 77%
    07:00 +5°C° 0 mm 7 m/s 740 mmHg 77%
    08:00 +6°C° 0,1 mm 7 m/s 740 mmHg 76%
    09:00 +6°C° 0,1 mm 8 m/s 741 mmHg 75%
    10:00 +7°C° 0,1 mm 8 m/s 741 mmHg 74%
    11:00 +9°C° 0 mm 8 m/s 741 mmHg 71%
    12:00 +10°C° 0 mm 8 m/s 741 mmHg 69%
    13:00 +11°C° 0 mm 8 m/s 741 mmHg 67%
    14:00 +10°C° 0 mm 7 m/s 741 mmHg 70%
    15:00 +9°C° 0 mm 6 m/s 741 mmHg 73%
    16:00 +9°C° 0 mm 6 m/s 742 mmHg 76%
    17:00 +8°C° 0 mm 5 m/s 742 mmHg 77%
    18:00 +8°C° 0 mm 5 m/s 742 mmHg 78%
    19:00 +8°C° 0 mm 5 m/s 743 mmHg 80%
    20:00 +8°C° 0 mm 5 m/s 743 mmHg 81%
    21:00 +7°C° 0 mm 4 m/s 743 mmHg 82%
    22:00 +7°C° 0 mm 4 m/s 744 mmHg 83%
    23:00 +7°C° 0,1 mm 4 m/s 744 mmHg 83%

    22 Noiembrie, Miercuri

    Timp Temperatura Precipitaţii Vânt Presiune Umiditate
    00:00 +7°C° 0,1 mm 4 m/s 744 mmHg 84%
    01:00 +7°C° 0,1 mm 4 m/s 744 mmHg 84%
    02:00 +8°C° 0 mm 3 m/s 744 mmHg 83%
    03:00 +8°C° 0 mm 3 m/s 744 mmHg 83%
    04:00 +8°C° 0 mm 2 m/s 744 mmHg 82%
    05:00 +8°C° 0 mm 2 m/s 744 mmHg 83%
    06:00 +8°C° 0 mm 1 m/s 744 mmHg 83%
    07:00 +8°C° 0 mm 1 m/s 745 mmHg 84%
    08:00 +9°C° 0 mm 1 m/s 745 mmHg 79%
    09:00 +10°C° 0 mm 1 m/s 745 mmHg 74%
    10:00 +11°C° 0 mm 1 m/s 745 mmHg 70%
    11:00 +12°C° 0 mm 1 m/s 745 mmHg 66%
    12:00 +13°C° 0 mm 2 m/s 745 mmHg 63%
    13:00 +14°C° 0 mm 2 m/s 745 mmHg 60%
    14:00 +13°C° 0 mm 2 m/s 745 mmHg 65%
    15:00 +12°C° 0 mm 2 m/s 745 mmHg 71%
    16:00 +10°C° 0 mm 2 m/s 744 mmHg 77%
    17:00 +9°C° 0 mm 2 m/s 745 mmHg 80%
    18:00 +8°C° 0 mm 2 m/s 745 mmHg 82%
    19:00 +7°C° 0 mm 2 m/s 745 mmHg 85%
    20:00 +7°C° 0 mm 2 m/s 745 mmHg 86%
    21:00 +8°C° 0 mm 1 m/s 745 mmHg 87%
    22:00 +7°C° 0 mm 1 m/s 745 mmHg 87%
    23:00 +7°C° 0 mm 1 m/s 745 mmHg 88%

    23 Noiembrie, Joi

    Timp Temperatura Precipitaţii Vânt Presiune Umiditate
    00:00 +6°C° 0 mm 2 m/s 745 mmHg 89%
    01:00 +5°C° 0 mm 2 m/s 745 mmHg 90%
    02:00 +5°C° 0 mm 2 m/s 745 mmHg 91%
    03:00 +5°C° 0 mm 2 m/s 744 mmHg 92%
    04:00 +5°C° 0 mm 2 m/s 744 mmHg 93%
    05:00 +5°C° 0 mm 2 m/s 744 mmHg 93%
    06:00 +5°C° 0 mm 2 m/s 744 mmHg 93%
    07:00 +5°C° 0 mm 2 m/s 745 mmHg 94%
    08:00 +5°C° 0 mm 3 m/s 745 mmHg 91%
    09:00 +5°C° 0 mm 3 m/s 745 mmHg 89%
    10:00 +7°C° 0 mm 3 m/s 745 mmHg 87%
    11:00 +8°C° 0 mm 3 m/s 744 mmHg 84%
    12:00 +8°C° 0 mm 3 m/s 744 mmHg 82%
    13:00 +9°C° 0 mm 3 m/s 744 mmHg 80%
    14:00 +8°C° 0 mm 3 m/s 744 mmHg 82%
    15:00 +8°C° 0 mm 2 m/s 744 mmHg 85%
    16:00 +9°C° 0 mm 1 m/s 744 mmHg 87%
    17:00 +8°C° 0 mm 1 m/s 744 mmHg 89%
    18:00 +8°C° 0 mm 1 m/s 744 mmHg 90%
    19:00 +7°C° 0 mm 1 m/s 744 mmHg 92%
    20:00 +7°C° 0 mm 1 m/s 745 mmHg 92%
    21:00 +6°C° 0 mm 1 m/s 745 mmHg 92%
    22:00 +6°C° 0 mm 1 m/s 745 mmHg 92%
    23:00 +6°C° 0 mm 1 m/s 745 mmHg 90%
    Arată mai mult